"Pseudo-MPEC" for P11JI5C

Created 2023 Sep 27 2:22:11 UT using Find_Orb

Click here for an explanation of pseudo-MPECs

 
 Astrometry: 
     P11JI5C* C2023 09 16C(ogj5eJExTe2.MiwAstrometry*.ZH6C$?.u@)LTTredacted;$F51
     P11JI5C  C2023 09 16GDm2n8d#Wv1^ebhclicktB7d@o](D#1p2kJjlI]XqvCt-?_l+HZYF51
     P11JI5C  C2023 09 16DKCduZherem?for^XjJ$::p=QO5Mr/5kI'vqa/;g,bgM[%+KO/@CF51
     P11JI5C  C2023 09 16Z]t/L[67L_#VY2K?+,XR1explanation#:'w7a5epagQwXX\P[ldF51

Station data:
(F51) Pan-STARRS 1, Haleakala  (N20.707234 W156.255910)  US/Hawaii.
   Observers J. Bulger, T. Lowe, A. Schultz, M. Willman. Measurers K.
   Chambers, S. Chastel, T. de Boer, L. Denneau, J. Fairlamb, H. Flewelling,
   M. Huber, C.-C. Lin, E. Magnier, Y. Ramanjooloo, R. Wainscoat, R. Weryk.
   1.8-m Ritchey-Chrétien + CCD.

Orbital elements:  P11JI5C
   Perihelion 2022 Aug 11.40830 +/- 995 TT =  9:47:57 (JD 2459802.90830)
Epoch 2023 Sep 16.0 TT = JDT 2460203.5   Earth MOID: 0.1621   Ju: 0.1857
M  10.56821372 +/- 80               Ma: 0.0714   Sa: 0.9105      AutoNEOCP
n   0.02638150 +/- 0.128            Peri.  121.39055 +/- 70
a  11.1755684 +/- 36.1              Node    60.00272 +/- 60
e   0.9091702 +/- 0.227             Incl.   17.03478 +/- 30
P  37.36                   H 13.67  G  0.15   U 11.4  SR
q 1.01507432 +/- 2.52    Q 21.3360625 +/- 144             (J2000 ecliptic)
From 4 observations 2023 Sept. 16 (44.5 min); mean residual 0".04
Residuals in arcseconds: 
230916 F51  .00   .01-    230916 F51  .00   .09+    
230916 F51  .00   .03-    230916 F51  .00   .05-    

Ephemerides (geocentric):
Date (UTC) HH   RA             Dec           delta  r     elong  mag " sig PA
---- --------  ------------   ------------  ------ ------ -----  --- --------
2023 09 27 02  20 34 38.901   -37 37 51.37  4.3611 4.8911 116.5 21.0 1594 102
2023 09 27 03  20 34 38.471   -37 37 43.91  4.3620 4.8915 116.4 21.0 1602 102
2023 09 27 04  20 34 38.043   -37 37 36.45  4.3629 4.8918 116.4 21.0 1610 103
2023 09 27 05  20 34 37.617   -37 37 28.98  4.3638 4.8922 116.4 21.0 1618 103
2023 09 27 06  20 34 37.193   -37 37 21.51  4.3647 4.8925 116.3 21.0 1627 103
2023 09 27 07  20 34 36.770   -37 37 14.02  4.3657 4.8929 116.3 21.0 1635 103
2023 09 27 08  20 34 36.350   -37 37 06.54  4.3666 4.8932 116.2 21.0 1643 103
2023 09 27 09  20 34 35.931   -37 36 59.05  4.3675 4.8936 116.2 21.0 1652 103
2023 09 27 10  20 34 35.514   -37 36 51.55  4.3684 4.8939 116.2 21.0 1660 103
2023 09 27 11  20 34 35.099   -37 36 44.04  4.3693 4.8943 116.1 21.0 1668 103
2023 09 27 12  20 34 34.685   -37 36 36.53  4.3702 4.8946 116.1 21.0 1677 103
2023 09 27 13  20 34 34.274   -37 36 29.02  4.3711 4.8950 116.1 21.0 1685 103
2023 09 27 14  20 34 33.864   -37 36 21.50  4.3721 4.8953 116.0 21.0 1694 103
2023 09 27 15  20 34 33.456   -37 36 13.97  4.3730 4.8957 116.0 21.0 1702 103
2023 09 27 16  20 34 33.050   -37 36 06.44  4.3739 4.8960 115.9 21.0 1710 103
2023 09 27 17  20 34 32.646   -37 35 58.90  4.3748 4.8964 115.9 21.0 1719 103
2023 09 27 18  20 34 32.244   -37 35 51.35  4.3757 4.8967 115.9 21.0 1727 103
2023 09 27 19  20 34 31.843   -37 35 43.80  4.3766 4.8971 115.8 21.0 1736 103
2023 09 27 20  20 34 31.445   -37 35 36.25  4.3776 4.8974 115.8 21.0 1744 103
2023 09 27 21  20 34 31.048   -37 35 28.68  4.3785 4.8978 115.7 21.0 1753 103
2023 09 27 22  20 34 30.653   -37 35 21.12  4.3794 4.8981 115.7 21.0 1762 103
2023 09 27 23  20 34 30.260   -37 35 13.54  4.3803 4.8985 115.7 21.0 1770 103
2023 09 28 00  20 34 29.868   -37 35 05.97  4.3812 4.8988 115.6 21.0 1779 103
2023 09 28 01  20 34 29.479   -37 34 58.38  4.3821 4.8992 115.6 21.0 1787 103
2023 09 28 02  20 34 29.091   -37 34 50.79  4.3831 4.8995 115.6 21.0 1796 103
2023 09 28 03  20 34 28.705   -37 34 43.19  4.3840 4.8999 115.5 21.0 1805 103
2023 09 28 04  20 34 28.321   -37 34 35.59  4.3849 4.9002 115.5 21.0 1813 103
2023 09 28 05  20 34 27.939   -37 34 27.99  4.3858 4.9006 115.4 21.0 1822 103
2023 09 28 06  20 34 27.559   -37 34 20.37  4.3867 4.9009 115.4 21.0 1831 103
2023 09 28 07  20 34 27.180   -37 34 12.75  4.3876 4.9013 115.4 21.0 1839 103
2023 09 28 08  20 34 26.804   -37 34 05.13  4.3886 4.9016 115.3 21.0 1848 103
2023 09 28 09  20 34 26.429   -37 33 57.50  4.3895 4.9020 115.3 21.0 1857 103
2023 09 28 10  20 34 26.056   -37 33 49.86  4.3904 4.9023 115.2 21.0 1866 103
2023 09 28 11  20 34 25.684   -37 33 42.22  4.3913 4.9027 115.2 21.0 1875 103
2023 09 28 12  20 34 25.315   -37 33 34.58  4.3922 4.9030 115.2 21.0 1883 103
2023 09 28 13  20 34 24.947   -37 33 26.92  4.3932 4.9034 115.1 21.0 1892 103
2023 09 28 14  20 34 24.581   -37 33 19.27  4.3941 4.9037 115.1 21.0 1901 103
2023 09 28 15  20 34 24.217   -37 33 11.60  4.3950 4.9041 115.1 21.0 1910 103
2023 09 28 16  20 34 23.855   -37 33 03.93  4.3959 4.9044 115.0 21.0 1919 103
2023 09 28 17  20 34 23.495   -37 32 56.26  4.3968 4.9048 115.0 21.0 1928 103
2023 09 28 18  20 34 23.137   -37 32 48.58  4.3978 4.9051 114.9 21.0 1937 103
2023 09 28 19  20 34 22.780   -37 32 40.89  4.3987 4.9055 114.9 21.0 1946 103
2023 09 28 20  20 34 22.425   -37 32 33.20  4.3996 4.9058 114.9 21.0 1954 103
2023 09 28 21  20 34 22.072   -37 32 25.51  4.4005 4.9062 114.8 21.0 1963 103
2023 09 28 22  20 34 21.721   -37 32 17.80  4.4014 4.9065 114.8 21.0 1972 103
2023 09 28 23  20 34 21.371   -37 32 10.09  4.4024 4.9069 114.7 21.0 1981 103
2023 09 29 00  20 34 21.024   -37 32 02.38  4.4033 4.9072 114.7 21.0 1990 103
2023 09 29 01  20 34 20.678   -37 31 54.66  4.4042 4.9076 114.7 21.0 2000 103